TimePST,TemperatureF,Dew PointF,Humidity,Sea Level PressureIn,VisibilityMPH,Wind Direction,Wind SpeedMPH,Gust SpeedMPH,PrecipitationIn,Events,Conditions,WindDirDegrees,DateUTC
12:54 AM,51.1,48.0,89,30.13,10.0,Calm,Calm,-,N/A,,Clear,0,2012-11-04 07:54:00
1:54 AM,51.1,48.0,89,30.13,10.0,Calm,Calm,-,N/A,,Clear,0,2012-11-04 08:54:00
1:54 AM,50.0,46.9,89,30.13,10.0,Calm,Calm,-,N/A,,Clear,0,2012-11-04 09:54:00
2:54 AM,50.0,46.9,89,30.13,10.0,Calm,Calm,-,N/A,,Clear,0,2012-11-04 10:54:00
4:54 AM,48.9,46.0,90,30.14,10.0,North,3.5,-,N/A,,Clear,10,2012-11-04 12:54:00
5:40 AM,48.2,46.4,93,30.18,2.0,Calm,Calm,-,N/A,,Clear,0,2012-11-04 13:40:00
5:49 AM,48.2,46.4,93,30.18,4.0,Calm,Calm,-,N/A,,Clear,0,2012-11-04 13:49:00
5:54 AM,48.9,46.0,90,30.15,2.0,Calm,Calm,-,N/A,,Clear,0,2012-11-04 13:54:00
6:06 AM,48.2,46.4,93,30.17,7.0,Calm,Calm,-,N/A,,Clear,0,2012-11-04 14:06:00
6:19 AM,48.2,46.4,93,30.18,2.5,Calm,Calm,-,N/A,,Clear,0,2012-11-04 14:19:00
6:28 AM,48.2,46.4,93,30.18,5.0,Calm,Calm,-,N/A,,Clear,0,2012-11-04 14:28:00
6:54 AM,50.0,48.0,93,30.16,10.0,Calm,Calm,-,N/A,,Clear,0,2012-11-04 14:54:00
7:54 AM,55.9,52.0,87,30.18,10.0,Calm,Calm,-,N/A,,Clear,0,2012-11-04 15:54:00
8:54 AM,62.1,55.0,78,30.19,10.0,Calm,Calm,-,N/A,,Clear,0,2012-11-04 16:54:00
9:54 AM,66.0,55.0,68,30.19,10.0,SW,4.6,-,N/A,,Clear,220,2012-11-04 17:54:00
10:54 AM,70.0,55.0,59,30.18,10.0,WSW,4.6,-,N/A,,Clear,250,2012-11-04 18:54:00
11:54 AM,73.0,57.0,57,30.16,10.0,South,3.5,-,N/A,,Clear,180,2012-11-04 19:54:00
12:54 PM,75.9,55.9,50,30.14,10.0,SW,5.8,-,N/A,,Clear,220,2012-11-04 20:54:00
1:54 PM,77.0,55.0,47,30.12,10.0,SW,5.8,-,N/A,,Clear,230,2012-11-04 21:54:00
2:54 PM,77.0,54.0,45,30.11,10.0,SSE,3.5,-,N/A,,Clear,160,2012-11-04 22:54:00
3:54 PM,78.1,55.0,45,30.11,10.0,Calm,Calm,-,N/A,,Clear,0,2012-11-04 23:54:00
4:54 PM,73.0,57.0,57,30.10,10.0,Calm,Calm,-,N/A,,Clear,0,2012-11-05 00:54:00
5:54 PM,66.0,55.0,68,30.11,10.0,Calm,Calm,-,N/A,,Clear,0,2012-11-05 01:54:00
6:54 PM,64.0,55.0,73,30.12,10.0,Calm,Calm,-,N/A,,Clear,0,2012-11-05 02:54:00
7:54 PM,62.1,55.9,80,30.12,10.0,Calm,Calm,-,N/A,,Clear,0,2012-11-05 03:54:00
8:54 PM,57.9,52.0,81,30.13,10.0,Calm,Calm,-,N/A,,Clear,0,2012-11-05 04:54:00
9:54 PM,57.9,53.1,84,30.13,10.0,NNE,4.6,-,N/A,,Clear,20,2012-11-05 05:54:00
10:54 PM,55.0,51.1,86,30.13,10.0,NNE,3.5,-,N/A,,Clear,20,2012-11-05 06:54:00